SCP
-0 -0 -0 -0 -0 -0 -0 -0 -0 -0 -0 -0 0 0 0 0 0 0 0 0 0 0 -0 -0 -0 -0 0 0 0 0 0 0 -0 -0 0 0 0 0 0 0 0 0 0 0 0 0 0
-0 -0 -0 -0 -0 -0 -0 -0 -0 -0 -0 -0 -0 -0 0 0 0 0 0 0 0 0 -0 -0 -0 -0 -0 -0 0 -0 -0 -0 0 0 0 0 0 0 0 0 0 0 0 0 0 0 0
0 -0 -0 -0 -0 -0 -0 -0 -0 -0 -0 -0 -0 -0 -0 0 0 0 0 0 0 -0 -0 -0 -0 -0 0 0 -0 -0 -0 0 0 0 0 0 0 0 0 0 0 0 0 0 0 0 0
0 0 -0 -0 -0 -0 -0 -0 -0 -0 -0 -0 -0 -0 -0 -0 -0 0 -0 -0 -0 -0 -0 -0 -0 -0 0 -0 -0 -0 -0 -0 -0 -0 -0 -0 -0 0 0 0 -0 -0 -0 -0 0 0 0
0 0 0 0 -0 -0 -0 -0 -0 -0 -0 -0 -0 -0 -0 -0 -0 0 0 0 0 0 -0 -0 -0 -0 0 0 0 0 0 0 0 0 0 0 -0 0 -0 -0 0 -0 0 0 0 -0 0
0 0 0 0 -0 -0 -0 -0 -0 -0 -0 -0 -0 -0 -0 -0 -0 0 -0 0 0 0 0 -0 -0 -0 0 0 0 0 0 0 0 0 0 -0 0 0 0 0 0 0 0 0 0 0 0
0 0 0 0 -0 -0 -0 -0 -0 -0 -0 -0 -0 -0 -0 -0 -0 0 -0 0 0 0 0 0 0 0 0 0 0 0 0 0 0 0 0 0 0 0 0 0 0 0 0 0 0 0 0
0 0 0 0 -0 -0 -0 -0 -0 -0 -0 -0 -0 -0 -0 -0 0 -0 0 0 -0 -0 0 0 0 0 0 0 0 0 0 0 0 0 0 0 0 0 0 0 0 0 0 0 0 0 0
0 0 0 0 0 0 0 -0 -0 -0 -0 -0 -0 -0 -0 -0 -0 -0 0 0 -0 -0 0 0 0 0 0 -0 0 0 0 0 0 0 0 0 0 0 0 0 0 0 0 0 0 0 0
0 0 0 0 0 0 -0 -0 -0 -0 -0 -0 -0 -0 -0 0 -0 0 0 -0 -0 -0 -0 0 0 0 0 0 0 0 0 0 0 0 0 0 0 0 0 0 0 0 0 0 0 0 0
-0 0 0 0 -0 0 -0 -0 -0 -0 -0 -0 -0 -0 -0 -0 -0 0 -0 -0 0 0 0 0 0 0 0 0 0 0 0 0 0 0 0 0 0 0 0 0 0 0 0 0 0 0 0
-0 -0 -0 -0 -0 -0 0 -0 -0 -0 -0 -0 -0 -0 -0 0 0 0 0 0 0 0 0 0 0 0 0 0 0 0 0 0 0 0 0 0 0 0 0 0 0 0 0 0 0 0 0
0 -0 -0 -0 -0 -0 0 0 0 0 0 -0 -0 -0 0 -0 0 -0 0 0 0 0 0 0 0 0 0 0 0 0 0 0 0 0 0 0 0 0 0 0 0 0 0 0 0 0 0
0 0 -0 -0 -0 -0 0 0 0 -0 -0 -0 -0 0 0 0 0 0 0 0 0 0 0 0 0 0 0 0 0 0 0 0 0 0 0 0 0 0 0 0 0 0 0 0 0 0 0
0 0 0 0 0 -0 0 0 0 0 -0 -0 -0 0 0 0 0 0 -0 0 0 0 0 0 0 0 0 0 0 0 0 0 0 0 0 0 0 0 0 0 0 0 0 0 0 0 0
0 0 0 0 0 0 0 0 0 0 0 0 0 0 0 0 0 -0 0 0 0 0 0 0 0 0 0 0 0 0 0 0 0 0 0 0 0 0 0 0 0 0 0 0 0 0 0
0 0 0 0 0 0 0 0 0 0 -0 0 0 0 0 0 0 0 0 0 0 0 0 0 0 0 0 0 0 0 0 0 0 0 0 0 0 0 0 0 0 0 0 0 0 0 0
0 0 0 0 0 0 0 0 -0 -0 -0 0 -0 0 0 0 0 0 0 0 0 0 0 0 0 0 0 0 0 0 0 0 0 0 0 0 0 0 0 0 0 -0 0 0 0 0 0
0 0 0 0 0 0 0 0 -0 -0 -0 0 0 0 0 0 0 0 0 0 0 0 0 0 0 0 0 0 0 0 0 0 0 0 0 0 0 0 0 0 0 0 0 0 0 0 0
0 0 0 0 0 0 0 0 -0 -0 -0 -0 0 0 0 0 0 0 0 0 0 0 0 0 0 0 0 0 0 0 0 0 0 0 0 0 0 0 0 0 0 0 0 0 0 0 0
0 0 0 0 0 0 0 0 -0 -0 -0 -0 0 0 0 0 0 0 0 0 0 0 0 0 0 0 0 0 0 0 0 0 0 0 0 0 0 0 0 0 0 0 -0 0 0 0 0
0 0 0 0 0 0 0 0 -0 -0 -0 0 0 0 0 0 0 0 0 0 0 0 0 0 0 0 0 0 0 0 0 0 0 0 0 0 0 0 0 0 0 0 0 0 0 0 0
0 0 0 0 0 0 0 0 0 0 0 0 0 0 0 0 0 0 0 0 0 0 0 0 0 0 0 0 0 0 0 0 0 0 0 0 0 0 0 0 0 0 0 0 0 0 0
0 0 0 0 0 0 0 0 0 0 0 0 0 0 0 0 0 0 0 0 0 0 0 0 0 0 0 0 0 0 0 0 0 0 0 0 0 0 0 0 0 0 0 0 0 0 0
0 0 0 0 0 0 0 0 0 0 0 0 0 0 0 0 0 0 0 0 0 0 0 0 0 0 0 0 0 0 0 0 0 0 0 0 0 0 0 0 0 0 0 0 0 0 0
0 0 0 0 0 0 0 0 0 0 0 0 0 0 0 0 0 0 0 0 0 0 0 0 0 0 0 0 0 0 0 0 0 0 0 0 0 0 0 0 0 0 0 0 0 0 0
0 0 0 0 0 0 0 0 0 0 0 0 0 0 0 0 0 0 0 0 0 0 0 0 0 0 0 0 0 0 0 0 0 0 0 0 0 0 0 0 0 0 0 0 0 0 0
0 0 0 0 0 0 0 0 0 0 0 0 0 0 0 0 0 -0 0 0 0 0 0 0 0 0 0 0 0 0 0 0 0 0 0 0 0 0 0 0 0 0 0 0 0 0 0
0 0 0 0 0 0 0 0 0 0 0 0 0 0 0 0 0 0 0 -0 -0 -0 0 0 0 0 0 0 0 0 0 0 0 0 0 0 0 0 0 0 0 -0 -0 0 0 0 0
Wind_Speed_500mb
65 67 67 66 67 70 71 72 74 77 66 51 43 36 27 22 24 27 19 16 6 8 9 15 24 30 26 20 22 19 19 17 18 14 12 6 8 1 3 1 5 15 5 11 19 27 33
65 66 68 68 68 69 70 71 71 71 65 51 49 40 28 24 25 31 25 16 19 8 9 15 29 34 21 30 15 14 16 13 10 10 11 14 12 7 3 4 11 2 17 26 28 25 23
65 66 68 69 70 69 67 68 67 66 65 54 50 41 34 30 31 33 26 20 17 15 18 34 38 34 27 19 10 6 7 5 10 7 6 8 7 6 8 5 2 14 24 21 18 11 20
65 67 69 71 71 70 67 65 64 61 60 52 47 36 37 36 36 28 20 23 28 31 43 48 35 24 24 17 14 9 1 1 4 2 3 1 2 4 7 4 20 19 14 13 19 19 16
65 67 70 73 73 71 68 63 61 58 54 48 42 33 35 39 43 27 23 27 27 32 30 26 14 8 17 15 14 12 6 1 3 2 4 6 4 8 13 14 19 17 14 22 16 22 16
65 67 70 73 74 72 69 64 59 55 51 46 33 32 27 36 39 25 23 33 35 25 19 16 12 11 20 9 10 15 9 3 4 10 13 9 11 16 19 12 15 22 28 24 28 16 33
64 65 69 73 74 72 69 65 60 56 50 43 25 26 20 22 32 27 6 6 4 10 33 26 17 16 13 17 10 18 20 12 10 15 16 12 18 14 19 15 18 24 29 33 31 27 31
62 64 71 74 75 73 70 66 63 58 50 42 30 19 25 19 21 26 16 7 5 10 15 16 21 16 13 22 7 23 24 11 15 20 14 18 17 8 15 19 23 27 33 35 30 20 32
61 65 70 75 76 74 71 66 62 59 51 42 32 13 26 22 6 22 17 9 17 15 5 9 11 16 21 14 7 21 26 19 17 18 16 19 21 19 19 23 23 27 32 35 40 36 35
63 67 72 73 73 73 70 67 64 59 52 40 29 16 22 21 9 18 8 2 15 11 10 7 5 8 15 4 6 8 23 13 8 13 15 14 4 12 23 27 25 35 20 25 34 28 23
63 68 70 72 72 72 69 66 64 62 53 41 28 18 22 15 9 11 16 8 15 6 8 6 6 4 7 20 17 8 22 7 12 15 10 8 17 24 28 21 17 22 20 29 33 36 40
66 67 69 72 72 70 67 65 63 61 57 46 27 9 14 18 17 16 10 14 10 10 3 5 3 9 11 18 6 18 14 8 8 13 9 21 18 9 10 14 14 25 30 39 41 27 23
64 66 69 71 71 69 66 64 63 61 58 48 31 5 8 22 18 13 2 7 9 7 5 5 8 11 11 17 3 18 15 11 12 11 12 22 7 2 12 20 20 12 26 14 10 16 19
64 65 67 69 69 69 67 64 63 60 58 50 32 7 10 23 23 9 10 10 9 6 5 3 8 9 8 20 9 21 16 7 8 11 21 13 3 4 4 22 17 31 15 13 14 17 30
64 66 66 65 65 66 65 64 62 60 57 53 21 7 10 26 17 4 10 5 8 4 6 12 11 6 2 6 12 13 14 6 7 8 13 12 10 28 21 10 9 7 14 16 24 37 31
63 64 64 62 62 62 64 64 63 60 56 53 13 11 19 24 11 4 5 6 4 2 7 3 6 3 11 15 13 19 9 5 3 3 7 9 18 14 7 23 29 26 14 8 7 10 25
63 62 61 60 59 59 60 62 63 59 55 47 11 3 24 17 8 3 3 7 5 5 4 5 5 9 8 14 14 14 7 4 4 7 11 20 9 11 34 11 20 11 17 15 12 16 13
61 59 58 58 57 57 58 59 60 60 56 45 12 2 32 13 1 6 7 4 4 2 2 5 8 9 11 8 15 10 11 5 2 15 22 18 13 28 43 42 29 32 34 27 12 20 15
57 56 55 55 55 54 54 56 56 54 55 43 12 9 20 16 5 8 5 3 4 5 3 3 6 6 5 10 6 16 15 5 11 22 9 12 8 16 17 11 4 12 12 23 31 19 34
54 51 50 51 51 51 52 52 53 49 44 26 10 4 12 23 14 8 7 2 4 4 10 6 12 10 9 15 18 18 21 12 4 20 30 22 19 29 22 33 36 45 47 42 34 11 35
48 45 46 47 48 48 50 49 47 47 38 22 17 9 8 8 8 13 6 5 7 5 7 11 7 9 4 5 26 23 10 12 30 27 15 12 18 30 40 46 47 51 54 53 43 44 33
44 43 42 42 43 45 46 47 47 46 35 22 11 12 13 10 9 12 3 3 11 3 8 11 18 11 16 22 23 31 37 30 22 18 14 7 12 23 38 42 45 51 51 45 47 43 46
40 39 37 38 39 40 42 43 46 44 39 19 17 12 9 3 7 9 5 7 9 13 17 19 23 26 33 33 32 37 50 59 46 34 29 10 5 6 23 29 41 36 14 10 22 24 28
36 36 34 34 35 37 37 37 38 38 37 20 16 11 9 6 8 11 14 24 28 33 33 25 39 34 24 35 55 57 59 49 43 39 39 15 8 5 15 31 16 4 4 10 22 27 38
33 31 31 31 32 33 33 32 33 32 29 19 16 11 9 10 15 24 9 22 22 30 36 43 35 18 23 35 23 19 14 14 19 22 23 33 14 7 8 19 40 37 8 4 4 34 34
31 30 30 29 30 31 31 30 28 30 30 18 9 8 8 16 2 10 23 26 21 20 24 24 13 28 18 22 15 17 9 9 7 8 13 18 23 8 7 14 14 6 9 2 18 22 6
30 29 29 28 28 29 29 28 27 27 29 24 8 7 5 18 17 10 14 20 22 21 14 38 17 13 9 7 8 12 14 3 9 8 4 10 13 23 22 17 23 2 3 16 11 12 50
29 28 28 28 27 27 27 27 27 25 25 27 17 13 13 13 46 39 35 40 36 31 14 23 22 5 10 8 6 5 7 6 10 13 6 10 8 11 10 11 18 12 10 6 22 52 42
29 27 25 24 26 27 27 26 26 25 22 23 14 16 19 30 47 58 61 59 65 59 47 20 16 23 9 7 6 6 11 11 21 12 10 11 13 5 11 12 33 60 49 42 33 42 40
Wind_Direction_500mb
28 27 26 24 22 20 19 19 19 19 23 30 27 24 32 41 39 25 5 353 16 84 63 86 116 127 123 105 99 108 91 74 59 50 55 60 66 174 207 181 256 253 181 247 268 276 279
26 23 21 19 17 15 14 14 16 18 20 25 19 15 19 31 22 15 18 53 83 109 115 115 122 121 123 96 109 92 70 48 46 46 43 42 33 19 85 307 283 69 279 277 273 278 271
22 19 18 15 14 13 13 13 13 15 16 18 22 30 37 29 10 6 29 66 41 113 112 128 120 98 99 94 120 129 111 83 51 55 58 40 21 327 337 253 270 290 280 270 246 210 287
19 18 16 15 13 11 11 12 13 14 15 15 21 34 30 25 17 12 48 53 74 94 110 120 119 97 86 73 67 42 75 102 52 102 142 215 266 280 287 270 238 261 246 254 146 257 271
17 16 14 13 12 11 10 10 11 13 14 13 16 25 30 29 25 36 75 74 83 98 108 117 102 102 85 47 40 26 53 197 287 238 290 243 259 289 226 264 265 199 301 304 301 200 274
13 12 12 12 10 10 9 9 9 12 11 13 15 21 30 30 31 51 91 76 72 96 102 95 46 158 53 26 34 27 19 10 273 282 243 235 275 263 242 296 306 313 303 302 297 305 297
9 9 10 9 8 7 8 8 7 8 10 8 6 15 12 14 30 39 157 27 119 115 64 63 55 70 46 3 27 4 355 317 298 279 278 329 293 291 335 306 299 292 288 293 297 314 298
8 7 6 6 7 7 6 6 6 6 8 6 7 4 4 357 17 25 40 103 90 137 96 57 51 44 14 351 312 6 6 329 306 294 309 258 267 343 318 284 280 282 287 287 304 305 318
6 5 4 3 3 3 3 3 4 6 6 6 5 5 4 5 18 21 49 103 137 140 220 68 42 24 3 353 39 356 359 326 284 280 282 284 302 336 284 289 285 279 288 297 302 311 282
3 2 0 2 3 2 1 2 1 2 5 4 2 2 10 16 59 19 3 271 177 176 228 55 23 25 358 33 196 17 353 323 265 312 315 277 43 296 291 289 293 290 329 309 297 304 301
360 358 358 359 0 2 1 360 0 359 1 3 359 353 3 29 44 13 349 125 163 189 237 64 52 356 6 29 325 34 356 331 311 316 284 40 312 314 294 310 312 291 325 296 290 282 289
356 356 356 356 357 358 360 359 359 357 357 359 354 3 15 28 17 3 11 137 146 227 134 121 354 345 345 15 22 345 350 351 293 302 261 281 309 288 334 303 280 312 289 287 266 266 259
356 356 354 354 355 357 359 358 358 357 353 357 349 234 32 13 345 333 103 172 225 283 145 52 342 338 338 349 351 359 350 39 27 326 352 319 199 231 306 316 305 267 311 303 270 205 253
354 354 353 354 354 354 357 358 358 357 352 356 352 269 288 343 354 5 152 221 255 49 28 47 321 324 343 3 3 347 348 7 83 354 310 343 191 24 13 307 292 300 290 281 293 298 306
352 352 353 353 353 352 355 356 357 357 355 355 4 104 19 346 353 49 222 259 29 57 7 333 306 298 30 2 336 328 356 327 5 358 356 322 260 319 309 320 255 43 245 1 289 273 265
350 350 351 352 352 352 353 355 357 358 358 355 28 133 4 356 14 96 251 75 111 84 337 299 321 333 324 342 328 341 320 102 324 300 347 331 300 299 313 289 254 242 321 271 229 279 299
347 348 349 351 352 353 354 355 355 359 1 358 54 189 351 353 51 55 65 75 136 93 331 279 307 290 298 319 322 321 287 274 245 335 298 295 271 272 296 255 294 238 237 231 299 277 284
346 347 348 351 352 354 357 358 357 358 3 12 32 227 353 42 304 29 61 13 342 253 248 277 276 279 284 314 296 288 261 267 294 314 304 307 288 287 289 288 275 268 264 262 251 266 252
344 346 348 349 352 356 1 2 2 3 4 8 6 350 360 30 31 50 67 175 255 260 297 269 258 248 282 283 282 270 276 303 267 292 305 14 256 300 301 152 153 241 281 273 271 275 256
343 345 348 349 351 355 2 6 5 7 8 14 357 343 27 45 55 358 357 178 268 249 276 270 291 277 269 270 243 267 270 296 249 292 290 297 235 242 260 286 307 293 288 283 264 245 279
340 344 347 349 351 354 1 5 9 11 15 39 14 48 13 350 49 345 304 306 274 284 264 263 214 245 300 273 312 265 271 279 282 299 248 238 256 253 257 268 277 276 276 275 266 267 261
338 341 344 348 350 354 359 1 8 15 20 39 22 358 337 304 308 305 100 190 288 260 273 264 258 246 288 270 233 279 291 293 282 264 247 266 265 288 277 281 272 274 277 275 274 277 283
333 335 340 345 349 354 358 3 6 16 27 43 19 349 330 311 307 287 5 319 302 306 281 262 285 288 289 297 299 283 282 278 267 262 266 267 253 257 282 297 308 285 293 277 268 283 282
326 329 336 342 347 353 358 2 6 14 27 31 10 351 322 300 294 313 304 293 286 284 264 271 296 280 280 301 300 284 264 257 257 249 236 217 207 241 286 304 265 108 205 299 283 287 291
319 323 329 337 342 348 354 357 360 4 16 32 4 12 337 296 308 294 291 302 290 281 259 276 286 288 308 300 291 278 220 226 221 226 214 215 235 267 271 286 283 277 165 228 247 295 299
312 317 321 329 336 339 344 348 352 352 357 22 6 13 326 307 15 324 309 298 290 299 291 263 256 299 294 281 258 263 277 314 229 203 213 199 225 214 289 282 284 15 155 291 299 280 94
305 306 309 317 325 331 337 341 347 349 347 354 331 314 318 287 284 283 280 315 302 291 298 299 314 307 255 241 251 268 269 10 259 261 191 219 219 243 263 259 265 218 65 314 259 333 322
298 300 304 309 315 320 327 332 338 343 342 337 313 292 238 255 289 276 271 270 279 267 260 281 323 163 267 253 272 326 285 308 272 256 210 233 245 239 235 254 274 79 329 235 296 305 306
296 298 302 304 309 315 321 326 330 334 336 329 326 303 294 264 267 286 281 268 258 259 265 254 246 306 267 265 263 301 257 265 278 274 207 246 221 284 208 246 298 300 300 298 309 296 309
Wind_Speed_850mb
65 67 67 66 67 70 71 72 74 77 66 51 43 36 27 22 24 27 19 16 6 8 9 15 24 30 26 20 22 19 19 17 18 14 12 6 8 1 3 1 5 15 5 11 19 27 33
65 66 68 68 68 69 70 71 71 71 65 51 49 40 28 24 25 31 25 16 19 8 9 15 29 34 21 30 15 14 16 13 10 10 11 14 12 7 3 4 11 2 17 26 28 25 23
65 66 68 69 70 69 67 68 67 66 65 54 50 41 34 30 31 33 26 20 17 15 18 34 38 34 27 19 10 6 7 5 10 7 6 8 7 6 8 5 2 14 24 21 18 11 20
65 67 69 71 71 70 67 65 64 61 60 52 47 36 37 36 36 28 20 23 28 31 43 48 35 24 24 17 14 9 1 1 4 2 3 1 2 4 7 4 20 19 14 13 19 19 16
65 67 70 73 73 71 68 63 61 58 54 48 42 33 35 39 43 27 23 27 27 32 30 26 14 8 17 15 14 12 6 1 3 2 4 6 4 8 13 14 19 17 14 22 16 22 16
65 67 70 73 74 72 69 64 59 55 51 46 33 32 27 36 39 25 23 33 35 25 19 16 12 11 20 9 10 15 9 3 4 10 13 9 11 16 19 12 15 22 28 24 28 16 33
64 65 69 73 74 72 69 65 60 56 50 43 25 26 20 22 32 27 6 6 4 10 33 26 17 16 13 17 10 18 20 12 10 15 16 12 18 14 19 15 18 24 29 33 31 27 31
62 64 71 74 75 73 70 66 63 58 50 42 30 19 25 19 21 26 16 7 5 10 15 16 21 16 13 22 7 23 24 11 15 20 14 18 17 8 15 19 23 27 33 35 30 20 32
61 65 70 75 76 74 71 66 62 59 51 42 32 13 26 22 6 22 17 9 17 15 5 9 11 16 21 14 7 21 26 19 17 18 16 19 21 19 19 23 23 27 32 35 40 36 35
63 67 72 73 73 73 70 67 64 59 52 40 29 16 22 21 9 18 8 2 15 11 10 7 5 8 15 4 6 8 23 13 8 13 15 14 4 12 23 27 25 35 20 25 34 28 23
63 68 70 72 72 72 69 66 64 62 53 41 28 18 22 15 9 11 16 8 15 6 8 6 6 4 7 20 17 8 22 7 12 15 10 8 17 24 28 21 17 22 20 29 33 36 40
66 67 69 72 72 70 67 65 63 61 57 46 27 9 14 18 17 16 10 14 10 10 3 5 3 9 11 18 6 18 14 8 8 13 9 21 18 9 10 14 14 25 30 39 41 27 23
64 66 69 71 71 69 66 64 63 61 58 48 31 5 8 22 18 13 2 7 9 7 5 5 8 11 11 17 3 18 15 11 12 11 12 22 7 2 12 20 20 12 26 14 10 16 19
64 65 67 69 69 69 67 64 63 60 58 50 32 7 10 23 23 9 10 10 9 6 5 3 8 9 8 20 9 21 16 7 8 11 21 13 3 4 4 22 17 31 15 13 14 17 30
64 66 66 65 65 66 65 64 62 60 57 53 21 7 10 26 17 4 10 5 8 4 6 12 11 6 2 6 12 13 14 6 7 8 13 12 10 28 21 10 9 7 14 16 24 37 31
63 64 64 62 62 62 64 64 63 60 56 53 13 11 19 24 11 4 5 6 4 2 7 3 6 3 11 15 13 19 9 5 3 3 7 9 18 14 7 23 29 26 14 8 7 10 25
63 62 61 60 59 59 60 62 63 59 55 47 11 3 24 17 8 3 3 7 5 5 4 5 5 9 8 14 14 14 7 4 4 7 11 20 9 11 34 11 20 11 17 15 12 16 13
61 59 58 58 57 57 58 59 60 60 56 45 12 2 32 13 1 6 7 4 4 2 2 5 8 9 11 8 15 10 11 5 2 15 22 18 13 28 43 42 29 32 34 27 12 20 15
57 56 55 55 55 54 54 56 56 54 55 43 12 9 20 16 5 8 5 3 4 5 3 3 6 6 5 10 6 16 15 5 11 22 9 12 8 16 17 11 4 12 12 23 31 19 34
54 51 50 51 51 51 52 52 53 49 44 26 10 4 12 23 14 8 7 2 4 4 10 6 12 10 9 15 18 18 21 12 4 20 30 22 19 29 22 33 36 45 47 42 34 11 35
48 45 46 47 48 48 50 49 47 47 38 22 17 9 8 8 8 13 6 5 7 5 7 11 7 9 4 5 26 23 10 12 30 27 15 12 18 30 40 46 47 51 54 53 43 44 33
44 43 42 42 43 45 46 47 47 46 35 22 11 12 13 10 9 12 3 3 11 3 8 11 18 11 16 22 23 31 37 30 22 18 14 7 12 23 38 42 45 51 51 45 47 43 46
40 39 37 38 39 40 42 43 46 44 39 19 17 12 9 3 7 9 5 7 9 13 17 19 23 26 33 33 32 37 50 59 46 34 29 10 5 6 23 29 41 36 14 10 22 24 28
36 36 34 34 35 37 37 37 38 38 37 20 16 11 9 6 8 11 14 24 28 33 33 25 39 34 24 35 55 57 59 49 43 39 39 15 8 5 15 31 16 4 4 10 22 27 38
33 31 31 31 32 33 33 32 33 32 29 19 16 11 9 10 15 24 9 22 22 30 36 43 35 18 23 35 23 19 14 14 19 22 23 33 14 7 8 19 40 37 8 4 4 34 34
31 30 30 29 30 31 31 30 28 30 30 18 9 8 8 16 2 10 23 26 21 20 24 24 13 28 18 22 15 17 9 9 7 8 13 18 23 8 7 14 14 6 9 2 18 22 6
30 29 29 28 28 29 29 28 27 27 29 24 8 7 5 18 17 10 14 20 22 21 14 38 17 13 9 7 8 12 14 3 9 8 4 10 13 23 22 17 23 2 3 16 11 12 50
29 28 28 28 27 27 27 27 27 25 25 27 17 13 13 13 46 39 35 40 36 31 14 23 22 5 10 8 6 5 7 6 10 13 6 10 8 11 10 11 18 12 10 6 22 52 42
29 27 25 24 26 27 27 26 26 25 22 23 14 16 19 30 47 58 61 59 65 59 47 20 16 23 9 7 6 6 11 11 21 12 10 11 13 5 11 12 33 60 49 42 33 42 40
Wind_Direction_850mb
28 27 26 24 22 20 19 19 19 19 23 30 27 24 32 41 39 25 5 353 16 84 63 86 116 127 123 105 99 108 91 74 59 50 55 60 66 174 207 181 256 253 181 247 268 276 279
26 23 21 19 17 15 14 14 16 18 20 25 19 15 19 31 22 15 18 53 83 109 115 115 122 121 123 96 109 92 70 48 46 46 43 42 33 19 85 307 283 69 279 277 273 278 271
22 19 18 15 14 13 13 13 13 15 16 18 22 30 37 29 10 6 29 66 41 113 112 128 120 98 99 94 120 129 111 83 51 55 58 40 21 327 337 253 270 290 280 270 246 210 287
19 18 16 15 13 11 11 12 13 14 15 15 21 34 30 25 17 12 48 53 74 94 110 120 119 97 86 73 67 42 75 102 52 102 142 215 266 280 287 270 238 261 246 254 146 257 271
17 16 14 13 12 11 10 10 11 13 14 13 16 25 30 29 25 36 75 74 83 98 108 117 102 102 85 47 40 26 53 197 287 238 290 243 259 289 226 264 265 199 301 304 301 200 274
13 12 12 12 10 10 9 9 9 12 11 13 15 21 30 30 31 51 91 76 72 96 102 95 46 158 53 26 34 27 19 10 273 282 243 235 275 263 242 296 306 313 303 302 297 305 297
9 9 10 9 8 7 8 8 7 8 10 8 6 15 12 14 30 39 157 27 119 115 64 63 55 70 46 3 27 4 355 317 298 279 278 329 293 291 335 306 299 292 288 293 297 314 298
8 7 6 6 7 7 6 6 6 6 8 6 7 4 4 357 17 25 40 103 90 137 96 57 51 44 14 351 312 6 6 329 306 294 309 258 267 343 318 284 280 282 287 287 304 305 318
6 5 4 3 3 3 3 3 4 6 6 6 5 5 4 5 18 21 49 103 137 140 220 68 42 24 3 353 39 356 359 326 284 280 282 284 302 336 284 289 285 279 288 297 302 311 282
3 2 0 2 3 2 1 2 1 2 5 4 2 2 10 16 59 19 3 271 177 176 228 55 23 25 358 33 196 17 353 323 265 312 315 277 43 296 291 289 293 290 329 309 297 304 301
360 358 358 359 0 2 1 360 0 359 1 3 359 353 3 29 44 13 349 125 163 189 237 64 52 356 6 29 325 34 356 331 311 316 284 40 312 314 294 310 312 291 325 296 290 282 289
356 356 356 356 357 358 360 359 359 357 357 359 354 3 15 28 17 3 11 137 146 227 134 121 354 345 345 15 22 345 350 351 293 302 261 281 309 288 334 303 280 312 289 287 266 266 259
356 356 354 354 355 357 359 358 358 357 353 357 349 234 32 13 345 333 103 172 225 283 145 52 342 338 338 349 351 359 350 39 27 326 352 319 199 231 306 316 305 267 311 303 270 205 253
354 354 353 354 354 354 357 358 358 357 352 356 352 269 288 343 354 5 152 221 255 49 28 47 321 324 343 3 3 347 348 7 83 354 310 343 191 24 13 307 292 300 290 281 293 298 306
352 352 353 353 353 352 355 356 357 357 355 355 4 104 19 346 353 49 222 259 29 57 7 333 306 298 30 2 336 328 356 327 5 358 356 322 260 319 309 320 255 43 245 1 289 273 265
350 350 351 352 352 352 353 355 357 358 358 355 28 133 4 356 14 96 251 75 111 84 337 299 321 333 324 342 328 341 320 102 324 300 347 331 300 299 313 289 254 242 321 271 229 279 299
347 348 349 351 352 353 354 355 355 359 1 358 54 189 351 353 51 55 65 75 136 93 331 279 307 290 298 319 322 321 287 274 245 335 298 295 271 272 296 255 294 238 237 231 299 277 284
346 347 348 351 352 354 357 358 357 358 3 12 32 227 353 42 304 29 61 13 342 253 248 277 276 279 284 314 296 288 261 267 294 314 304 307 288 287 289 288 275 268 264 262 251 266 252
344 346 348 349 352 356 1 2 2 3 4 8 6 350 360 30 31 50 67 175 255 260 297 269 258 248 282 283 282 270 276 303 267 292 305 14 256 300 301 152 153 241 281 273 271 275 256
343 345 348 349 351 355 2 6 5 7 8 14 357 343 27 45 55 358 357 178 268 249 276 270 291 277 269 270 243 267 270 296 249 292 290 297 235 242 260 286 307 293 288 283 264 245 279
340 344 347 349 351 354 1 5 9 11 15 39 14 48 13 350 49 345 304 306 274 284 264 263 214 245 300 273 312 265 271 279 282 299 248 238 256 253 257 268 277 276 276 275 266 267 261
338 341 344 348 350 354 359 1 8 15 20 39 22 358 337 304 308 305 100 190 288 260 273 264 258 246 288 270 233 279 291 293 282 264 247 266 265 288 277 281 272 274 277 275 274 277 283
333 335 340 345 349 354 358 3 6 16 27 43 19 349 330 311 307 287 5 319 302 306 281 262 285 288 289 297 299 283 282 278 267 262 266 267 253 257 282 297 308 285 293 277 268 283 282
326 329 336 342 347 353 358 2 6 14 27 31 10 351 322 300 294 313 304 293 286 284 264 271 296 280 280 301 300 284 264 257 257 249 236 217 207 241 286 304 265 108 205 299 283 287 291
319 323 329 337 342 348 354 357 360 4 16 32 4 12 337 296 308 294 291 302 290 281 259 276 286 288 308 300 291 278 220 226 221 226 214 215 235 267 271 286 283 277 165 228 247 295 299
312 317 321 329 336 339 344 348 352 352 357 22 6 13 326 307 15 324 309 298 290 299 291 263 256 299 294 281 258 263 277 314 229 203 213 199 225 214 289 282 284 15 155 291 299 280 94
305 306 309 317 325 331 337 341 347 349 347 354 331 314 318 287 284 283 280 315 302 291 298 299 314 307 255 241 251 268 269 10 259 261 191 219 219 243 263 259 265 218 65 314 259 333 322
298 300 304 309 315 320 327 332 338 343 342 337 313 292 238 255 289 276 271 270 279 267 260 281 323 163 267 253 272 326 285 308 272 256 210 233 245 239 235 254 274 79 329 235 296 305 306
296 298 302 304 309 315 321 326 330 334 336 329 326 303 294 264 267 286 281 268 258 259 265 254 246 306 267 265 263 301 257 265 278 274 207 246 221 284 208 246 298 300 300 298 309 296 309